Wind_Speed
15 15 16 16 16 16 16 15 14 13 12 10 11 13 15 16 17 12 11 2 3 10 11 12 11 13 16 18 21 20 18 21 25 24 19 15 14 13 13 16 26 9 7 7 9
16 16 16 16 16 16 17 16 15 14 12 12 11 12 13 14 14 13 3 4 5 3 8 12 13 14 14 17 19 20 17 27 25 22 22 22 19 14 12 14 21 24 15 5 11
18 17 17 16 16 16 17 16 15 14 12 11 11 11 12 11 14 9 5 4 4 5 8 8 11 10 17 19 19 22 24 24 21 23 24 24 24 13 16 14 15 21 27 13 13
19 18 17 17 17 16 16 15 14 13 10 9 9 10 11 8 2 10 5 4 2 4 6 5 11 14 17 19 20 23 25 23 23 26 25 22 19 21 22 19 16 12 26 22 17
20 19 18 18 17 17 17 15 13 11 9 7 7 8 7 8 6 10 5 4 4 6 6 4 8 10 16 15 18 21 21 20 22 19 23 23 22 24 24 17 12 11 18 28 19
22 21 20 18 18 17 16 15 13 11 7 6 5 6 9 13 7 9 7 6 7 7 2 7 4 7 10 15 13 16 13 18 22 21 20 23 23 22 27 21 22 17 19 27 24
21 21 20 19 18 18 16 14 11 7 5 5 5 6 11 4 4 6 7 9 4 6 9 5 7 9 7 11 15 13 17 18 19 19 21 19 25 28 25 23 22 18 19 21 16
22 21 19 19 18 15 13 10 7 5 5 5 4 7 10 7 8 8 8 8 7 7 8 9 8 11 13 13 9 16 18 18 20 23 22 19 26 25 25 23 24 16 19 16 20
23 22 19 16 14 10 6 5 4 1 5 4 5 10 9 8 12 12 9 10 8 8 8 8 12 13 14 12 15 17 15 18 19 5 8 18 25 20 22 11 12 14 16 16 21
24 23 20 13 7 4 1 1 1 5 3 6 11 7 8 10 11 8 8 8 9 8 9 11 11 13 13 13 14 12 15 12 11 8 13 17 20 19 14 13 15 15 15 16 16
25 23 17 9 3 1 1 4 6 7 12 12 1 9 2 2 5 11 10 10 10 10 13 14 11 14 16 13 12 13 16 16 16 9 10 13 19 20 18 18 16 16 16 15 16
23 19 14 3 1 2 5 5 5 7 9 10 9 9 6 4 6 12 11 12 13 13 13 9 14 16 14 8 11 14 17 17 17 14 13 16 20 20 20 21 19 19 18 17 17
20 14 5 2 3 4 4 5 6 6 7 8 7 10 10 12 11 7 13 14 15 14 15 15 17 6 11 12 14 16 16 16 17 15 15 16 25 25 23 28 24 24 21 20 20
17 10 1 6 4 1 3 5 7 4 6 14 10 8 8 8 12 12 10 15 12 14 14 12 15 4 12 13 13 16 14 15 10 13 14 16 17 18 18 13 14 13 13 13 6
13 6 4 3 11 7 7 9 6 5 5 10 10 7 5 13 4 13 11 13 17 17 12 17 13 10 15 15 13 16 17 10 15 16 18 21 14 18 20 17 10 9 11 13 13
13 4 3 3 6 4 8 6 5 7 6 7 5 8 13 14 14 9 9 13 15 18 19 23 19 16 16 15 12 13 13 15 18 16 17 22 18 18 16 15 13 10 8 7 6
10 5 6 6 8 8 7 8 7 7 4 5 5 10 12 13 12 14 15 17 16 17 19 22 23 24 21 18 18 13 15 13 16 15 17 18 7 12 6 4 2 15 11 8 6
14 8 7 9 9 7 9 8 11 5 6 5 7 12 15 15 16 12 15 16 17 19 17 18 19 17 17 15 19 17 16 12 18 16 18 4 8 8 8 12 8 6 9 5 9
13 8 11 7 7 7 7 9 10 10 5 8 12 15 17 11 4 10 13 17 18 18 17 15 21 11 4 11 14 17 18 19 15 19 17 20 28 26 15 12 8 10 10 10 8
8 7 11 3 5 9 8 12 13 0 8 10 14 9 14 12 9 12 13 8 5 11 12 17 18 17 13 13 16 18 18 15 7 13 21 19 21 15 18 15 15 13 10 10 5
6 4 5 1 4 7 8 12 8 9 8 7 12 15 16 16 16 18 18 16 10 10 12 13 16 20 18 19 20 15 17 20 18 15 15 17 12 14 10 3 10 11 8 6 13
6 4 4 1 6 5 7 6 3 12 13 15 13 16 16 17 19 20 21 19 9 10 15 15 7 16 21 18 17 16 22 18 11 11 14 16 18 7 0 7 11 7 8 13 12
6 6 4 4 5 6 10 13 13 12 13 8 10 11 11 14 12 13 14 13 10 13 11 9 8 14 18 19 6 13 18 18 19 18 23 16 20 15 13 18 10 12 11 12 13
4 4 3 5 2 6 10 13 9 5 11 12 11 14 15 17 17 15 18 14 6 11 8 7 15 20 17 22 11 8 12 15 12 12 19 20 24 12 14 15 29 11 16 12 11
1 2 3 5 6 8 10 13 16 13 6 9 8 12 12 13 14 17 19 19 15 12 8 11 19 21 22 25 24 25 26 24 23 22 20 20 25 19 24 22 18 19 19 15 11
4 4 3 12 12 10 9 11 14 12 12 16 16 15 14 16 18 20 20 18 17 17 18 16 17 19 24 23 24 25 26 23 25 24 24 26 28 24 27 24 21 21 18 13 14
5 3 4 9 10 9 10 11 14 16 11 8 10 12 15 16 17 18 19 18 17 16 16 15 11 12 17 19 16 15 21 22 20 20 21 22 23 22 19 21 18 6 9 17 13
Wind_Direction
342 339 336 336 332 329 328 324 319 315 310 303 308 314 318 319 319 279 267 30 269 271 259 265 255 245 233 243 239 234 245 248 248 251 251 253 216 204 248 220 284 252 276 330 332
339 338 336 333 330 328 326 323 318 312 303 302 300 310 319 321 305 257 74 279 206 215 241 232 233 227 233 230 232 229 238 244 253 260 263 260 251 206 208 239 219 285 258 208 342
336 335 333 330 328 326 324 321 315 310 298 290 295 311 316 323 263 99 135 165 198 209 263 261 268 245 241 237 229 226 243 255 254 253 260 267 260 249 217 224 247 215 272 317 314
334 331 327 327 325 322 319 317 311 304 288 278 294 318 315 287 317 114 149 165 183 241 249 230 233 232 239 237 229 248 246 257 264 268 270 267 273 266 262 236 210 257 235 267 294
332 329 327 325 324 324 321 316 308 297 281 269 291 316 316 226 240 141 172 186 220 248 274 262 248 241 249 250 250 242 256 261 266 258 275 274 251 255 261 255 226 236 256 247 258
333 329 326 325 323 322 318 313 305 293 270 258 282 307 256 257 101 152 177 194 253 249 256 274 314 336 292 272 259 270 261 268 258 256 255 257 259 261 256 260 251 226 249 257 236
332 329 326 325 324 322 319 313 303 293 261 244 262 292 264 278 180 172 195 224 236 261 266 228 289 268 317 270 252 263 270 260 255 261 252 258 258 250 255 259 252 234 242 252 235
331 329 326 323 322 322 321 323 305 258 228 227 255 268 263 200 201 206 218 238 230 244 262 288 267 276 278 276 260 252 251 257 248 233 237 238 257 253 247 246 246 243 250 244 222
330 326 323 322 322 330 354 29 18 158 202 203 239 228 257 151 209 220 220 239 193 234 244 265 258 256 261 246 252 229 252 256 245 183 256 249 255 259 253 219 243 254 255 249 251
329 325 321 318 323 351 109 75 141 104 129 211 259 252 241 207 195 226 218 248 247 244 239 229 239 242 230 243 254 287 249 226 266 228 199 250 256 251 251 208 238 246 239 251 246
331 326 320 312 309 201 198 233 209 199 209 267 109 263 286 193 221 228 224 220 237 241 256 218 251 241 251 254 282 313 289 284 287 268 271 263 272 271 258 243 234 239 241 244 242
335 329 322 300 221 194 255 292 30 329 294 207 247 252 266 234 250 224 209 233 221 251 232 252 245 257 275 287 273 265 266 266 267 263 270 278 273 274 271 264 256 250 248 227 229
344 339 331 172 173 230 290 20 316 311 259 169 214 221 206 210 242 254 200 226 254 255 254 258 281 0 274 244 244 253 261 276 282 298 287 284 269 257 252 238 246 243 242 243 214
353 351 114 159 241 211 203 334 313 302 270 154 189 200 192 222 235 234 211 239 246 259 280 265 287 236 253 241 258 271 276 283 266 274 267 280 289 283 284 233 217 239 221 236 183
354 5 146 259 322 258 346 317 307 250 277 144 145 104 195 217 30 202 223 242 253 273 244 262 241 226 250 259 269 283 299 283 274 272 280 268 264 270 255 247 247 231 198 198 187
345 351 183 221 249 328 313 298 239 236 252 162 183 215 219 216 243 248 204 228 272 277 269 268 263 256 252 280 283 285 280 261 260 254 254 258 251 266 262 201 171 182 185 208 202
335 297 246 296 321 322 304 233 245 249 90 195 234 219 247 265 255 233 246 254 241 254 248 242 243 243 242 246 254 232 258 265 259 244 246 252 247 269 349 77 286 170 204 208 228
324 260 270 271 298 301 268 240 257 300 303 107 286 278 265 271 268 255 262 260 257 256 270 280 278 273 221 220 267 258 243 270 282 285 294 336 246 253 246 188 169 295 267 227 223
324 244 252 236 284 285 259 241 256 335 13 310 303 271 266 250 247 291 259 267 276 287 263 262 271 293 345 271 242 263 270 261 289 270 271 276 283 283 174 174 199 213 206 214 229
325 256 253 181 276 265 250 260 296 15 297 287 279 290 287 293 250 241 270 280 282 294 302 284 285 275 281 242 269 263 275 273 249 262 264 260 259 270 199 190 191 200 208 230 251
285 255 104 120 257 244 253 276 319 306 309 276 278 285 284 289 286 283 284 284 241 250 280 267 275 277 274 259 250 248 242 252 260 248 254 274 284 69 68 58 223 200 207 251 264
293 264 111 190 258 249 270 353 353 287 274 267 260 273 276 283 281 280 279 278 266 232 271 279 292 276 281 282 272 244 268 232 246 263 269 275 271 191 159 238 223 219 231 261 285
313 290 141 264 272 313 325 299 292 277 288 277 269 279 284 284 285 276 280 291 291 299 295 323 258 279 282 271 346 318 318 304 276 250 252 260 263 268 186 207 221 229 255 276 285
299 298 190 210 292 300 319 302 294 296 285 276 278 286 282 275 266 268 275 274 274 277 63 327 275 272 275 285 280 237 221 258 289 270 265 258 267 255 263 288 274 271 248 283 291
289 8 355 302 291 311 297 295 294 302 272 281 279 274 274 286 294 294 295 290 276 265 248 265 268 272 276 273 273 270 265 253 241 259 261 266 280 266 269 279 283 285 280 274 276
316 336 328 286 276 279 278 275 307 310 319 293 293 293 292 288 294 297 291 287 289 295 285 276 272 275 279 281 279 274 270 277 277 276 271 263 255 265 267 271 279 298 270 266 260
357 263 279 285 266 271 286 314 306 308 296 287 290 293 288 296 308 304 297 288 280 278 284 286 274 273 279 285 284 280 260 264 273 270 265 255 260 264 273 269 275 304 281 283 305
Height
821 819 816 813 811 808 806 803 801 799 797 795 793 790 788 785 782 781 774 773 773 772 772 772 768 765 764 759 755 753 766 762 752 747 739 724 733 737 743 747 739 729 732 731 738
820 817 815 812 809 807 804 802 800 797 795 794 792 790 787 784 782 770 772 773 773 773 773 766 762 761 758 755 751 753 756 750 737 730 730 723 723 732 747 748 751 742 730 732 737
818 815 813 810 808 805 802 800 798 795 793 792 790 788 786 784 777 762 772 773 773 772 771 768 763 757 758 747 745 745 749 736 730 725 723 723 722 721 734 752 747 752 737 735 740
817 814 811 808 805 803 800 798 796 793 791 790 788 787 784 784 767 766 771 772 771 771 767 763 760 758 757 752 741 747 736 734 731 726 724 725 722 727 725 728 733 739 739 739 740
815 811 808 805 802 800 797 795 793 791 789 789 788 786 784 773 758 766 770 770 770 768 762 757 754 752 753 742 738 740 736 730 729 728 729 725 727 729 726 721 726 736 742 736 736
813 809 805 802 800 797 795 792 790 788 787 787 787 786 784 772 763 767 769 769 767 764 760 757 751 751 750 744 743 735 734 735 731 726 731 733 729 729 724 722 723 728 736 732 730
811 807 803 800 797 794 791 789 787 786 786 786 786 786 778 763 763 765 767 765 764 764 759 757 756 756 746 749 737 740 748 740 735 730 732 729 735 729 720 718 717 723 728 725 726
809 805 801 798 795 791 789 787 785 785 785 786 786 786 770 762 764 765 764 763 763 763 762 760 759 755 751 743 745 750 743 746 723 722 723 732 737 717 710 710 714 719 722 720 723
807 802 798 795 792 789 788 786 785 784 784 785 787 783 761 763 765 761 761 759 758 761 760 760 758 754 747 755 749 737 744 732 722 712 723 726 728 714 706 715 722 722 718 720 719
804 800 796 792 791 789 788 787 786 785 785 786 782 780 762 757 758 760 759 761 758 756 757 757 754 754 746 746 750 729 725 724 727 717 724 731 724 712 703 714 720 720 720 721 716
801 797 793 790 789 788 788 787 786 782 779 763 760 760 758 759 761 760 757 758 757 756 759 745 753 750 737 729 730 735 740 736 724 715 723 731 725 715 705 705 710 713 714 716 719
798 793 790 789 788 787 785 775 779 780 771 758 759 758 758 758 757 753 754 758 755 758 742 752 753 738 728 736 744 744 743 738 725 717 724 727 726 715 708 704 703 704 706 710 716
795 792 789 788 788 787 781 781 781 779 770 752 752 752 753 756 754 748 749 750 752 751 745 748 735 732 735 743 747 740 740 736 734 722 720 729 726 714 698 691 694 695 697 697 704
794 792 790 789 791 781 778 781 779 779 766 750 751 747 749 749 750 743 744 747 745 748 740 737 729 740 743 745 738 743 726 727 731 741 742 715 725 705 695 695 693 693 696 697 705
794 791 790 789 786 778 782 781 780 779 770 744 742 741 739 746 740 741 742 743 749 743 741 742 731 742 745 738 731 738 727 735 735 736 734 727 726 704 688 689 691 692 693 698 704
797 793 791 789 786 783 782 781 780 777 773 745 738 744 745 741 741 737 741 741 739 741 735 731 722 725 729 727 729 733 734 736 732 730 736 715 713 701 687 685 690 696 699 699 703
796 795 792 789 781 782 781 778 776 769 741 743 745 739 741 739 735 737 741 741 744 749 740 725 722 716 717 732 727 734 742 746 737 723 717 683 700 692 682 685 685 692 696 701 703
794 792 790 788 785 783 779 775 780 742 740 739 748 742 746 736 731 733 738 740 730 733 735 738 732 708 707 723 732 724 733 738 745 732 714 697 711 690 677 678 690 696 698 700 704
790 788 787 783 784 783 776 770 759 745 752 754 748 746 739 729 742 738 738 737 728 723 734 734 728 706 715 717 720 724 729 719 733 723 726 706 686 672 678 685 694 699 700 701 701
790 782 778 781 783 781 772 767 750 748 754 753 759 744 746 733 736 738 734 724 734 729 723 731 738 718 713 717 719 723 718 736 753 747 730 706 695 684 673 688 691 694 698 698 701
789 775 778 780 782 773 770 753 747 746 753 758 754 751 745 745 741 738 736 725 722 728 728 730 735 731 717 722 721 720 725 725 718 720 738 726 703 686 694 698 692 688 689 694 696
787 774 776 778 775 756 759 751 766 755 749 750 751 752 752 749 746 740 737 727 718 728 736 726 740 741 722 708 710 716 715 721 740 738 719 717 702 688 687 691 689 687 686 687 686
788 777 775 776 770 756 752 753 751 752 752 750 750 746 746 749 754 739 733 723 724 731 734 736 739 742 731 715 723 732 734 719 711 712 722 728 706 680 686 687 683 684 682 683 683
791 779 766 768 769 773 765 761 757 749 754 751 751 750 751 749 742 741 734 725 725 731 742 744 742 747 746 732 730 744 744 735 757 730 715 710 700 695 711 712 687 672 679 674 677
789 782 787 772 765 770 768 763 758 753 749 749 753 748 750 753 744 738 732 726 722 723 732 739 743 739 732 725 719 719 709 707 712 712 714 710 709 692 683 674 667 669 668 669 673
797 794 784 780 773 771 765 761 757 753 755 754 753 750 748 751 748 745 741 736 736 731 733 733 737 733 728 719 712 708 700 696 695 692 692 690 686 678 672 665 663 662 657 665 666
804 802 799 784 770 767 759 758 759 758 754 755 755 756 754 750 746 745 743 740 740 740 739 736 736 739 735 716 710 716 696 690 687 681 682 687 678 665 663 666 659 666 669 666 663